FREGAT R/B, 47720

Orbit data source: Space-Track

FREGAT R/B, 47720 is space debris originally from a launch on Sun, 28 Feb 2021 UTC launched from the Tyuratam Missile And Space Complex (TTMTR). Debris objects in space refer to the collection of defunct objects orbiting the Earth. Examples of debris include non-operational satellites, rocket bodies, and fragments generated from explosions, collisions, or faulty payload assembly.

Loading next visibility...
FREGAT R/B details
Identifier
47720, 2021-016B
Orbit
Molniya
Last TLE update2 days ago
Origin
Flag of CISLavochkin (CIS)
ManufacturerLavochkin
MissionSpacecraft
Bus & MotorFREGAT, Unknown motor
Mass1,000 kg wet, 1,000 kg dry
Launch date (UTC)
2021-02-28 (4 years ago)
Launch vehicleUnknown
Launch site
Tyuratam Missile And Space Complex (TTMTR)
Object type
Payload
Rocket body
Debris
Shape & HBRCyl, 3.35 m
Radar Cross Section8.354 m², Large (>1 m²)

Expand to show TLE details & history

TLE from 2 days ago
0 FREGAT R/B
1 47720U 21016B   25013.75288612 -.00000792  00000-0  00000-0 0  9999
2 47720  63.1697 122.8410 7146099 266.3766  17.0716  1.98936135 28102
Epoch: 2025-01-13T18:04Z
Definitive object data (Epoch: 2025-01-13T18:04:09.36Z)
Latitude-0.00016°
Longitude98.36659°
Altitude7,354.217 km
Speed6.568 km/s
True Right ascension08h 11m 30s
True Declination0° 00' 01"
Sunlit
Object was in full shadow at TLE epoch
Visualization TLE readout
Latitude48.4539°
Longitude-116.58658°
Altitude24,247.388 km
Speed3.334 km/s
Apparent Right ascension18h 18m 45s
Apparent Declination49° 48' 37"
Sunlit
Object is in daylight
Visualization observer readout
Local Sidereal Time16:21:43
Azimuth54.539° ENE
Elevation67.217°
Doppler factor1
Orbital elements
Apogee altitude39,408.957 km
Perigee altitude1,242.945 km
Semi-major axis26,704.088 km
Eccentricity0.7146099
Inclination63.1697°
RAAN122.841°
Arg. of periapsis266.3766°
True anomaly93.69056°
Mean anomaly17.0716°
Eccentric anomaly47.03167°
Mean motion0.49737 °/min
BSTARUnknown
Orbital period723.81 mins
Loading maneuver chart data...
Loading historical data...
Loading historical data...
Loading historical data...
Loading historical data...
Loading historical data...
Loading historical data...
Loading historical data...
Other satellites on launch #16 in the year 2021 (2021-02-28 UTC)

FREGAT R/B Visibility forecast

Observer location: undefined°, undefined

Span
Click to sort rows by Start time (UTC) header in descending order
Start Az.
Max El. time (UTC)
Max El. Az.
Max El.
End time (UTC)
End Az.
94 mins2025-01-15 15:40:49.225Z54.59° ENE2025-01-15 15:53:49.225Z63.415° ENE42.733°2025-01-15 17:14:49.225Z133.701° SE
562 mins2025-01-16 06:18:49.225Z160.846° S2025-01-16 08:07:49.225Z62.467° ENE43.193°2025-01-16 15:40:49.225Z47.346° ENE
|